Weather History for OAKB - December, 2013

Change the Weather History Date:

Thursday, December 5, 2013

  Actual Average Record
Temperature  
Mean Temperature 47 °F -  
Max Temperature 57 °F 46 °F - ()
Min Temperature 37 °F 23 °F - ()
Degree Days  
Heating Degree Days 18    
Moisture  
Dew Point 27 °F    
Average Humidity 49    
Maximum Humidity 75    
Minimum Humidity 27    
Precipitation  
Precipitation 0.00 in 0.03 in - ()
Sea Level Pressure  
Sea Level Pressure 30.22 in    
Wind  
Wind Speed 3 mph ()    
Max Wind Speed 7 mph    
Max Gust Speed -    
Visibility 3.5 miles    
Events      
T = Trace of Precipitation, MM = Missing Value Source: Averaged Metar Reports

Daily Weather History Graph

Daily Weather History Graph

Search for Another Location

Airport or City:

Trip Planner

Search our weather history database for the weather conditions in past years. The results will help you decide how hot, cold, wet, or windy it might be!

Date:

Astronomy

Dec. 05, 2013 Rise Set
Actual Time 6:45 AM AFT 4:42 PM AFT
Civil Twilight 6:17 AM AFT 5:10 PM AFT
Nautical Twilight 5:46 AM AFT 5:41 PM AFT
Astronomical Twilight 5:15 AM AFT 6:11 PM AFT
Moon 8:45 AM AFT (12/5) 7:28 PM AFT (12/5)
Length of Visible Light 10h 52m
Length of Day
9h 57m
Waxing Crescent, 8% of the Moon is Illuminated
Dec 5
Waxing Crescent
Dec 9
First Quarter
Dec 17
Full
Dec 25
Last Quarter
Jan 1
New

Hourly Weather History & Observations

Time (AFT) Temp. Windchill Dew Point Humidity Pressure Visibility Wind Dir Wind Speed Gust Speed Precip Events Conditions
12:20 AM 39.2 °F - 30.2 °F 70% 30.24 in 1.9 mi Variable 2.3 mph - N/A   Haze
1:20 AM 39.2 °F - 30.2 °F 70% 30.24 in 2.2 mi Variable 2.3 mph - N/A   Haze
2:20 AM 37.4 °F - 30.2 °F 75% 30.24 in 2.2 mi Variable 2.3 mph - N/A   Haze
3:20 AM 39.2 °F 35.0 °F 28.4 °F 65% 30.24 in 2.5 mi NNW 5.8 mph - N/A   Haze
3:50 AM 41.0 °F 36.4 °F 26.6 °F 57% 30.21 in 3.1 mi NNW 6.9 mph - N/A   Haze
4:20 AM 41.0 °F 37.1 °F 26.6 °F 57% 30.24 in 3.7 mi NNW 5.8 mph - N/A   Unknown
5:20 AM 37.4 °F 32.8 °F 26.6 °F 65% 30.24 in 4.3 mi NNW 5.8 mph - N/A   Unknown
6:20 AM 37.4 °F 34.9 °F 26.6 °F 65% 30.24 in 4.3 mi NW 3.5 mph - N/A   Unknown
7:20 AM 37.4 °F 34.9 °F 26.6 °F 65% 30.27 in 4.3 mi Variable 3.5 mph - N/A   Unknown
8:20 AM 42.8 °F 38.6 °F 26.6 °F 53% 30.30 in 3.1 mi NW 6.9 mph - N/A   Haze
9:20 AM 48.2 °F - 26.6 °F 43% 30.30 in 3.1 mi NW 6.9 mph - N/A   Haze
10:20 AM 51.8 °F - 24.8 °F 35% 30.27 in 4.3 mi NNW 4.6 mph - N/A   Unknown
11:20 AM 53.6 °F - 24.8 °F 33% 30.27 in 4.3 mi Variable 4.6 mph - N/A   Unknown
12:20 PM 55.4 °F - 24.8 °F 31% 30.24 in 4.3 mi SSE 2.3 mph - N/A   Unknown
1:20 PM 57.2 °F - 23.0 °F 27% 30.18 in 3.7 mi Variable 1.2 mph - N/A   Unknown
2:20 PM 55.4 °F - 23.0 °F 29% 30.18 in 4.3 mi Calm Calm - N/A   Unknown
3:20 PM 55.4 °F - 24.8 °F 31% 30.15 in 4.3 mi Variable 3.5 mph - N/A   Overcast
4:20 PM 53.6 °F - 24.8 °F 33% 30.15 in 3.7 mi West 6.9 mph - N/A   Overcast
5:20 PM 51.8 °F - 24.8 °F 35% 30.15 in 3.7 mi NNW 4.6 mph - N/A   Overcast
6:20 PM 50.0 °F - 24.8 °F 37% 30.18 in 2.5 mi West 3.5 mph - N/A   Haze
7:20 PM 50.0 °F - 26.6 °F 40% 30.21 in 2.5 mi Variable 1.2 mph - N/A   Haze
8:20 PM 50.0 °F - 26.6 °F 40% 30.21 in 2.5 mi Variable 1.2 mph - N/A   Haze
9:20 PM 46.4 °F 42.9 °F 28.4 °F 50% 30.21 in 4.3 mi East 6.9 mph - N/A   Haze
10:20 PM 44.6 °F - 28.4 °F 53% 30.21 in 4.3 mi Variable 1.2 mph - N/A   Haze
11:20 PM 42.8 °F 41.1 °F 28.4 °F 57% 30.18 in 4.3 mi Variable 3.5 mph - N/A   Partly Cloudy